FW6973 Weather Reports


time (UTC)temp
F
wind
direction
speed
knots
gust
knots
rain 1hr
in
rain 24hr
in
rain mn
in
humidity
%
barometer
mb
20260504204614 84 95 0.9 3.5 0.00 0.00 0.00 43 1009.4
20260504203109 84 179 0.9 4.3 0.00 0.00 0.00 41 1009.5
20260504201600 83 76 0.9 5.2 0.00 0.00 0.00 40 1009.5
20260504200057 82 171 2.6 6.1 0.00 0.00 0.00 37 1009.8
20260504194610 82 177 0.9 3.5 0.00 0.00 0.00 37 1009.8
20260504193057 81 97 0.9 3.5 0.00 0.00 0.00 43 1010.0
20260504191558 80 130 0.0 2.6 0.00 0.00 0.00 44 1010.0
20260504190129 79 180 1.7 4.3 0.00 0.00 0.00 41 1010.1
20260504184558 79 0 0.0 2.6 0.00 0.00 0.00 47 1010.4
20260504183100 78 107 0.9 3.5 0.00 0.00 0.00 50 1010.3
20260504181558 76 0 0.9 3.5 0.00 0.00 0.00 45 1010.4
20260504180057 75 70 0.0 2.6 0.00 0.00 0.00 51 1010.6
20260504174608 74 124 1.7 3.5 0.00 0.00 0.00 55 1010.6
20260504173059 73 0 0.0 3.5 0.00 0.00 0.00 58 1010.6
20260504171557 72 168 0.9 3.5 0.00 0.00 0.00 55 1010.7
20260504100103 49 0 0.0 1.7 0.00 0.00 0.00 92 1010.7
20260504081604 52 0 0.0 1.7 0.00 0.00 0.00 86 1010.8
20260504060126 58 0 0.0 0.0 0.00 0.00 0.00 72 1010.4
20260504050114 61 0 0.0 1.7 0.00 0.00 0.00 65 1010.5
20260504044559 62 270 0.0 3.5 0.00 0.00 0.00 65 1010.4
20260504043107 64 0 0.0 1.7 0.00 0.00 0.00 58 1010.5
20260504041557 65 0 0.0 3.5 0.00 0.00 0.00 62 1010.4
20260504040100 67 271 1.7 2.6 0.00 0.00 0.00 61 1010.3
20260504034601 69 318 0.0 2.6 0.00 0.00 0.00 55 1010.1
20260504033107 72 323 0.0 1.7 0.00 0.00 0.00 49 1010.1
20260504031605 75 323 0.9 1.7 0.00 0.00 0.00 42 1010.0
20260504030110 78 0 0.0 1.7 0.00 0.00 0.00 38 1010.0
20260504024608 80 0 0.0 0.9 0.00 0.00 0.00 36 1010.1
20260504023059 83 0 0.0 0.9 0.00 0.00 0.00 35 1010.2
20260504021601 84 324 0.0 2.6 0.00 0.00 0.00 30 1010.1
20260504020057 85 135 0.9 5.2 0.00 0.00 0.00 26 1010.2
20260504014604 86 331 0.9 4.3 0.00 0.00 0.00 28 1010.3
20260504013114 86 211 0.9 4.3 0.00 0.00 0.00 24 1010.3
20260504011600 85 0 0.0 2.6 0.00 0.00 0.00 26 1010.4
20260504010116 84 0 1.7 4.3 0.00 0.00 0.00 26 1010.4
20260504004557 85 194 0.9 6.1 0.00 0.00 0.00 29 1010.6
20260504003059 85 0 0.9 4.3 0.00 0.00 0.00 28 1010.7
20260504001603 86 121 1.7 7.8 0.00 0.00 0.00 29 1010.9
20260504000101 87 74 0.9 6.1 0.00 0.00 0.00 35 1011.0
20260503234557 86 0 0.9 6.1 0.00 0.00 0.00 33 1011.2
20260503233102 86 173 0.9 6.1 0.00 0.00 0.00 29 1011.3
20260503231557 86 176 1.7 5.2 0.00 0.00 0.00 31 1011.5
20260503230056 86 64 2.6 7.8 0.00 0.00 0.00 30 1011.7
20260503224601 86 284 2.6 7.0 0.00 0.00 0.00 27 1011.9
20260503223100 86 109 0.9 5.2 0.00 0.00 0.00 28 1011.9
20260503221600 85 144 1.7 5.2 0.00 0.00 0.00 32 1012.2
20260503220104 85 178 0.9 7.8 0.00 0.00 0.00 34 1012.3
20260503214601 85 78 1.7 3.5 0.00 0.00 0.00 39 1012.5
20260503213104 84 105 0.9 2.6 0.00 0.00 0.00 34 1012.7
20260503211559 84 67 1.7 6.1 0.00 0.00 0.00 28 1012.8